^^
Station Historical Data
Daily Summary for September 6, 2021 Units:  English    Metric   Both
Daily Weekly Monthly Yearly
  High: Low: Average:
Temperature: 72 °F 61.7 °F 66.8 °F
Dew Point: 59.6 °F 53.3 °F 56.2 °F
Humidity: 78% 59% 69%
Wind Speed: 5mph 0mph 2.9mph
Wind Gust: 13mph - -
Wind- - West
Pressure: 29.88 in 29.73 in -
Precipitation: 0.00 in    
 
 
Tabular Data for September 6, 2021
Time Temperature Dew Point Pressure Wind Wind Speed Wind Gust Humidity Rainfall Rate (Hourly) solar
00:00 68.4 °F 57.8 °F 29.73 in NNW 3 mph 5 mph 69% 0.00 in 0 W/m2
00:05 68.1 °F 57.5 °F 29.73 in NNW 3 mph 5 mph 69% 0.00 in 0 W/m2
00:10 67.8 °F 57.7 °F 29.73 in NW 3 mph 4 mph 70% 0.00 in 0 W/m2
00:15 67.6 °F 57.5 °F 29.73 in NW 3 mph 4 mph 70% 0.00 in 0 W/m2
00:20 67.5 °F 57.4 °F 29.73 in WNW 3 mph 3 mph 70% 0.00 in 0 W/m2
00:25 67.2 °F 57.1 °F 29.73 in WNW 2 mph 4 mph 70% 0.00 in 0 W/m2
00:30 67.1 °F 57.4 °F 29.73 in NE 2 mph 2 mph 71% 0.00 in 0 W/m2
00:35 67 °F 57.7 °F 29.73 in NNW 2 mph 3 mph 72% 0.00 in 0 W/m2
00:40 66.9 °F 57.6 °F 29.73 in WSW 1 mph 1 mph 72% 0.00 in 0 W/m2
00:45 66.8 °F 57.5 °F 29.73 in WNW 1 mph 2 mph 72% 0.00 in 0 W/m2
00:50 66.6 °F 57.3 °F 29.73 in WSW 2 mph 2 mph 72% 0.00 in 0 W/m2
00:55 66.5 °F 57.6 °F 29.73 in NW 2 mph 5 mph 73% 0.00 in 0 W/m2
01:00 66.5 °F 57.6 °F 29.74 in NNW 2 mph 2 mph 73% 0.00 in 0 W/m2
01:05 66.5 °F 57.6 °F 29.73 in NW 2 mph 6 mph 73% 0.00 in 0 W/m2
01:10 66.5 °F 57.2 °F 29.74 in WSW 3 mph 3 mph 72% 0.00 in 0 W/m2
01:15 66.7 °F 57.4 °F 29.74 in West 3 mph 6 mph 72% 0.00 in 0 W/m2
01:20 66.7 °F 57.4 °F 29.74 in WSW 3 mph 8 mph 72% 0.00 in 0 W/m2
01:25 66.8 °F 57.5 °F 29.73 in WNW 4 mph 8 mph 72% 0.00 in 0 W/m2
01:30 66.9 °F 57.2 °F 29.73 in WNW 4 mph 4 mph 71% 0.00 in 0 W/m2
01:35 67 °F 57.3 °F 29.73 in WNW 3 mph 4 mph 71% 0.00 in 0 W/m2
01:40 67.1 °F 57.4 °F 29.74 in WNW 3 mph 3 mph 71% 0.00 in 0 W/m2
01:45 67.1 °F 57.4 °F 29.74 in West 3 mph 7 mph 71% 0.00 in 0 W/m2
01:50 67.2 °F 57.9 °F 29.74 in NNW 3 mph 4 mph 72% 0.00 in 0 W/m2
01:55 67.2 °F 57.5 °F 29.74 in West 4 mph 6 mph 71% 0.00 in 0 W/m2
02:00 67.2 °F 57.1 °F 29.74 in WSW 4 mph 9 mph 70% 0.00 in 0 W/m2
02:05 67.3 °F 57.6 °F 29.74 in NNW 5 mph 9 mph 71% 0.00 in 0 W/m2
02:10 67.4 °F 58.4 °F 29.74 in NW 5 mph 13 mph 73% 0.00 in 0 W/m2
02:15 67.4 °F 58.8 °F 29.74 in WNW 4 mph 13 mph 74% 0.00 in 0 W/m2
02:20 67 °F 58.1 °F 29.74 in NW 4 mph 5 mph 73% 0.00 in 0 W/m2
02:25 66.7 °F 57.4 °F 29.75 in NW 5 mph 6 mph 72% 0.00 in 0 W/m2
02:30 66.4 °F 57.5 °F 29.75 in West 5 mph 5 mph 73% 0.00 in 0 W/m2
02:35 66 °F 57.1 °F 29.74 in NW 4 mph 10 mph 73% 0.00 in 0 W/m2
02:40 65.8 °F 56.9 °F 29.75 in North 4 mph 6 mph 73% 0.00 in 0 W/m2
02:45 65.6 °F 57.1 °F 29.75 in NW 5 mph 6 mph 74% 0.00 in 0 W/m2
02:50 65.4 °F 56.9 °F 29.75 in NW 4 mph 6 mph 74% 0.00 in 0 W/m2
02:55 65.3 °F 56.8 °F 29.75 in NW 5 mph 6 mph 74% 0.00 in 0 W/m2
03:00 65.2 °F 56.7 °F 29.75 in East 5 mph 5 mph 74% 0.00 in 0 W/m2
03:05 65.1 °F 56.6 °F 29.75 in NNE 4 mph 5 mph 74% 0.00 in 0 W/m2
03:10 65.1 °F 57 °F 29.75 in WNW 3 mph 5 mph 75% 0.00 in 0 W/m2
03:15 65 °F 56.9 °F 29.75 in WNW 3 mph 5 mph 75% 0.00 in 0 W/m2
03:20 65 °F 56.9 °F 29.75 in NW 2 mph 2 mph 75% 0.00 in 0 W/m2
03:25 64.9 °F 56.8 °F 29.75 in NW 2 mph 2 mph 75% 0.00 in 0 W/m2
03:30 64.8 °F 56.3 °F 29.75 in NW 2 mph 3 mph 74% 0.00 in 0 W/m2
03:35 64.7 °F 56.2 °F 29.75 in NW 3 mph 3 mph 74% 0.00 in 0 W/m2
03:40 64.6 °F 55.7 °F 29.75 in West 3 mph 3 mph 73% 0.00 in 0 W/m2
03:45 64.5 °F 54.9 °F 29.75 in North 3 mph 5 mph 71% 0.00 in 0 W/m2
03:50 64.4 °F 55.2 °F 29.76 in NW 3 mph 3 mph 72% 0.00 in 0 W/m2
03:55 64.3 °F 55.1 °F 29.76 in NNW 3 mph 3 mph 72% 0.00 in 0 W/m2
04:00 64.2 °F 55 °F 29.76 in West 3 mph 5 mph 72% 0.00 in 0 W/m2
04:05 64.2 °F 55 °F 29.76 in NW 3 mph 5 mph 72% 0.00 in 0 W/m2
04:10 64.2 °F 55.4 °F 29.76 in West 3 mph 4 mph 73% 0.00 in 0 W/m2
04:15 64.1 °F 55.3 °F 29.76 in WSW 3 mph 4 mph 73% 0.00 in 0 W/m2
04:20 64.1 °F 55.3 °F 29.75 in NE 3 mph 3 mph 73% 0.00 in 0 W/m2
04:25 63.9 °F 54.7 °F 29.75 in West 3 mph 3 mph 72% 0.00 in 0 W/m2
04:30 63.8 °F 54.6 °F 29.75 in NNW 3 mph 5 mph 72% 0.00 in 0 W/m2
04:35 63.7 °F 54.9 °F 29.75 in NNW 3 mph 5 mph 73% 0.00 in 0 W/m2
04:40 63.6 °F 54.8 °F 29.75 in West 2 mph 2 mph 73% 0.00 in 0 W/m2
04:45 63.5 °F 54.7 °F 29.76 in WSW 3 mph 3 mph 73% 0.00 in 0 W/m2
04:50 63.5 °F 55.1 °F 29.76 in West 2 mph 3 mph 74% 0.00 in 0 W/m2
04:55 63.4 °F 55 °F 29.76 in NW 3 mph 4 mph 74% 0.00 in 0 W/m2
05:00 63.3 °F 54.9 °F 29.76 in NW 3 mph 7 mph 74% 0.00 in 0 W/m2
05:05 63.2 °F 54.8 °F 29.77 in NNW 3 mph 7 mph 74% 0.00 in 0 W/m2
05:10 63.1 °F 55 °F 29.77 in NNW 4 mph 4 mph 75% 0.00 in 0 W/m2
05:15 63.1 °F 55 °F 29.77 in North 4 mph 4 mph 75% 0.00 in 0 W/m2
05:20 62.9 °F 54.5 °F 29.77 in NNW 3 mph 6 mph 74% 0.00 in 0 W/m2
05:25 62.9 °F 54.5 °F 29.77 in West 4 mph 6 mph 74% 0.00 in 0 W/m2
05:30 62.8 °F 54.4 °F 29.77 in North 4 mph 4 mph 74% 0.00 in 0 W/m2
05:35 62.7 °F 54.7 °F 29.77 in NNW 5 mph 6 mph 75% 0.00 in 0 W/m2
05:40 62.7 °F 54.7 °F 29.77 in NW 4 mph 4 mph 75% 0.00 in 0 W/m2
05:45 62.6 °F 54.9 °F 29.77 in WNW 4 mph 4 mph 76% 0.00 in 0 W/m2
05:50 62.5 °F 54.8 °F 29.77 in NW 4 mph 4 mph 76% 0.00 in 0 W/m2
05:55 62.4 °F 55.1 °F 29.77 in NW 4 mph 7 mph 77% 0.00 in 0 W/m2
06:00 62.4 °F 55.1 °F 29.77 in NNW 4 mph 8 mph 77% 0.00 in 0 W/m2
06:05 62.3 °F 55.4 °F 29.78 in NNW 4 mph 8 mph 78% 0.00 in 0 W/m2
06:10 62.3 °F 55.4 °F 29.78 in WSW 4 mph 4 mph 78% 0.00 in 0 W/m2
06:15 62.2 °F 55.3 °F 29.78 in SW 4 mph 4 mph 78% 0.00 in 0 W/m2
06:20 62.1 °F 54.8 °F 29.78 in North 4 mph 4 mph 77% 0.00 in 0 W/m2
06:25 62 °F 54.7 °F 29.78 in NNW 4 mph 5 mph 77% 0.00 in 0 W/m2
06:30 61.9 °F 55 °F 29.78 in NNW 4 mph 5 mph 78% 0.00 in 0 W/m2
06:35 61.8 °F 54.5 °F 29.79 in West 5 mph 5 mph 77% 0.00 in 0 W/m2
06:40 61.8 °F 54.5 °F 29.79 in NNW 4 mph 5 mph 77% 0.00 in 0 W/m2
06:45 61.7 °F 53.7 °F 29.79 in SSE 4 mph 5 mph 75% 0.00 in 0 W/m2
06:50 61.7 °F 53.7 °F 29.79 in NW 4 mph 4 mph 75% 0.00 in 0 W/m2
06:55 61.7 °F 53.3 °F 29.79 in NNW 5 mph 5 mph 74% 0.00 in 0 W/m2
07:00 61.7 °F 53.3 °F 29.79 in NNW 5 mph 5 mph 74% 0.00 in 0 W/m2
07:05 61.8 °F 53.4 °F 29.80 in NNW 5 mph 7 mph 74% 0.00 in 5 W/m2
07:10 61.8 °F 53.8 °F 29.80 in North 5 mph 5 mph 75% 0.00 in 7 W/m2
07:15 61.9 °F 53.9 °F 29.80 in NNW 5 mph 5 mph 75% 0.00 in 11 W/m2
07:20 61.9 °F 53.9 °F 29.80 in WNW 5 mph 5 mph 75% 0.00 in 12 W/m2
07:25 61.8 °F 53.8 °F 29.80 in North 5 mph 6 mph 75% 0.00 in 14 W/m2
07:30 61.9 °F 53.9 °F 29.80 in NNW 4 mph 5 mph 75% 0.00 in 16 W/m2
07:35 61.9 °F 54.2 °F 29.80 in NNW 4 mph 5 mph 76% 0.00 in 18 W/m2
07:40 61.9 °F 54.2 °F 29.80 in NW 4 mph 4 mph 76% 0.00 in 19 W/m2
07:45 61.9 °F 54.2 °F 29.80 in NNW 4 mph 5 mph 76% 0.00 in 21 W/m2
07:50 61.9 °F 54.2 °F 29.81 in WSW 4 mph 5 mph 76% 0.00 in 23 W/m2
07:55 61.9 °F 53.9 °F 29.81 in NNW 5 mph 5 mph 75% 0.00 in 25 W/m2
08:00 62 °F 54 °F 29.81 in NW 5 mph 5 mph 75% 0.00 in 26 W/m2
08:05 62 °F 53.6 °F 29.81 in WNW 4 mph 7 mph 74% 0.00 in 28 W/m2
08:10 62.1 °F 53.7 °F 29.81 in NNE 5 mph 5 mph 74% 0.00 in 28 W/m2
08:15 62.2 °F 53.8 °F 29.81 in ENE 5 mph 5 mph 74% 0.00 in 37 W/m2
08:20 62.3 °F 53.9 °F 29.81 in WNW 4 mph 4 mph 74% 0.00 in 32 W/m2
08:25 62.3 °F 54.3 °F 29.81 in WNW 3 mph 5 mph 75% 0.00 in 37 W/m2
08:30 62.5 °F 54.5 °F 29.82 in WSW 4 mph 5 mph 75% 0.00 in 186 W/m2
08:35 62.7 °F 55 °F 29.82 in NW 4 mph 5 mph 76% 0.00 in 200 W/m2
08:40 62.8 °F 54.8 °F 29.82 in NW 3 mph 4 mph 75% 0.00 in 213 W/m2
08:45 62.9 °F 54.9 °F 29.82 in NW 3 mph 4 mph 75% 0.00 in 227 W/m2
08:50 63.1 °F 54.7 °F 29.82 in West 4 mph 4 mph 74% 0.00 in 241 W/m2
08:55 63.2 °F 54.8 °F 29.83 in NW 4 mph 5 mph 74% 0.00 in 255 W/m2
09:00 63.3 °F 54.9 °F 29.83 in SSE 4 mph 4 mph 74% 0.00 in 271 W/m2
09:05 63.4 °F 55 °F 29.83 in WNW 3 mph 4 mph 74% 0.00 in 283 W/m2
09:10 63.4 °F 55.3 °F 29.83 in NW 3 mph 3 mph 75% 0.00 in 297 W/m2
09:15 63.5 °F 55.4 °F 29.83 in WNW 3 mph 6 mph 75% 0.00 in 308 W/m2
09:20 63.5 °F 55.4 °F 29.83 in West 4 mph 6 mph 75% 0.00 in 315 W/m2
09:25 63.6 °F 55.5 °F 29.83 in NW 4 mph 6 mph 75% 0.00 in 72 W/m2
09:30 63.7 °F 55.6 °F 29.83 in WSW 4 mph 5 mph 75% 0.00 in 49 W/m2
09:35 63.9 °F 55.8 °F 29.83 in NW 4 mph 7 mph 75% 0.00 in 67 W/m2
09:40 64 °F 55.9 °F 29.83 in North 4 mph 8 mph 75% 0.00 in 378 W/m2
09:45 64.1 °F 56 °F 29.84 in NNW 4 mph 8 mph 75% 0.00 in 388 W/m2
09:50 64.3 °F 55.8 °F 29.84 in NNW 4 mph 5 mph 74% 0.00 in 404 W/m2
09:55 64.5 °F 56 °F 29.84 in NW 4 mph 8 mph 74% 0.00 in 410 W/m2
10:00 64.5 °F 55.7 °F 29.84 in SW 4 mph 4 mph 73% 0.00 in 60 W/m2
10:05 64.6 °F 55.7 °F 29.84 in WNW 4 mph 4 mph 73% 0.00 in 195 W/m2
10:10 64.6 °F 55.4 °F 29.85 in South 4 mph 4 mph 72% 0.00 in 297 W/m2
10:15 64.6 °F 55 °F 29.85 in NNE 5 mph 5 mph 71% 0.00 in 471 W/m2
10:20 64.6 °F 55 °F 29.85 in NW 4 mph 4 mph 71% 0.00 in 482 W/m2
10:25 64.8 °F 55.6 °F 29.85 in NNW 4 mph 8 mph 72% 0.00 in 506 W/m2
10:30 64.8 °F 55.2 °F 29.86 in WSW 4 mph 5 mph 71% 0.00 in 508 W/m2
10:35 64.8 °F 55.2 °F 29.86 in WNW 5 mph 5 mph 71% 0.00 in 520 W/m2
10:40 64.9 °F 55.3 °F 29.86 in NW 4 mph 4 mph 71% 0.00 in 541 W/m2
10:45 65 °F 55.4 °F 29.86 in NNW 3 mph 5 mph 71% 0.00 in 550 W/m2
10:50 65.1 °F 55.1 °F 29.86 in NNW 3 mph 3 mph 70% 0.00 in 496 W/m2
10:55 65.2 °F 55.6 °F 29.86 in NNE 3 mph 3 mph 71% 0.00 in 568 W/m2
11:00 65.3 °F 56 °F 29.87 in West 3 mph 3 mph 72% 0.00 in 591 W/m2
11:05 65.4 °F 55.7 °F 29.87 in NW 4 mph 4 mph 71% 0.00 in 638 W/m2
11:10 65.6 °F 55.9 °F 29.87 in NW 4 mph 7 mph 71% 0.00 in 615 W/m2
11:15 65.5 °F 55.5 °F 29.87 in NW 4 mph 7 mph 70% 0.00 in 654 W/m2
11:20 65.6 °F 55.2 °F 29.87 in North 4 mph 4 mph 69% 0.00 in 622 W/m2
11:25 65.8 °F 55.3 °F 29.88 in WNW 3 mph 4 mph 69% 0.00 in 647 W/m2
11:30 65.8 °F 55.3 °F 29.87 in NE 3 mph 3 mph 69% 0.00 in 640 W/m2
11:35 66 °F 55.1 °F 29.87 in WNW 4 mph 4 mph 68% 0.00 in 652 W/m2
11:40 66.1 °F 54.8 °F 29.87 in West 4 mph 4 mph 67% 0.00 in 659 W/m2
11:45 66.3 °F 55 °F 29.87 in SE 4 mph 4 mph 67% 0.00 in 689 W/m2
11:50 66.5 °F 55.6 °F 29.87 in West 4 mph 4 mph 68% 0.00 in 680 W/m2
11:55 66.6 °F 54.9 °F 29.87 in NW 5 mph 5 mph 66% 0.00 in 698 W/m2
12:00 66.7 °F 54.6 °F 29.87 in NW 5 mph 5 mph 65% 0.00 in 751 W/m2
12:05 67 °F 55.3 °F 29.87 in NW 5 mph 9 mph 66% 0.00 in 708 W/m2
12:10 67.1 °F 55.4 °F 29.87 in NNW 4 mph 5 mph 66% 0.00 in 708 W/m2
12:15 67.4 °F 55.2 °F 29.87 in WNW 4 mph 5 mph 65% 0.00 in 744 W/m2
12:20 67.5 °F 55.3 °F 29.87 in WNW 4 mph 8 mph 65% 0.00 in 729 W/m2
12:25 67.7 °F 55.9 °F 29.87 in NNW 4 mph 8 mph 66% 0.00 in 751 W/m2
12:30 67.9 °F 55.3 °F 29.87 in NNW 4 mph 4 mph 64% 0.00 in 816 W/m2
12:35 68.1 °F 55.5 °F 29.87 in WNW 4 mph 6 mph 64% 0.00 in 255 W/m2
12:40 68.1 °F 55.9 °F 29.87 in NW 4 mph 4 mph 65% 0.00 in 181 W/m2
12:45 68.3 °F 55.6 °F 29.87 in NNW 3 mph 4 mph 64% 0.00 in 218 W/m2
12:50 68.4 °F 55.7 °F 29.86 in NNW 4 mph 4 mph 64% 0.00 in 805 W/m2
12:55 68.7 °F 56 °F 29.87 in WNW 4 mph 4 mph 64% 0.00 in 872 W/m2
13:00 68.8 °F 56.6 °F 29.87 in West 4 mph 4 mph 65% 0.00 in 793 W/m2
13:05 69.1 °F 56.8 °F 29.87 in SSE 4 mph 5 mph 65% 0.00 in 258 W/m2
13:10 68.7 °F 56.9 °F 29.87 in SSE 3 mph 3 mph 66% 0.00 in 316 W/m2
13:15 69 °F 58 °F 29.87 in NW 3 mph 4 mph 68% 0.00 in 803 W/m2
13:20 69.9 °F 56.3 °F 29.86 in NW 3 mph 5 mph 62% 0.00 in 902 W/m2
13:25 69.5 °F 56.3 °F 29.86 in SW 4 mph 5 mph 63% 0.00 in 886 W/m2
13:30 69.9 °F 57.2 °F 29.86 in WSW 4 mph 4 mph 64% 0.00 in 274 W/m2
13:35 69.6 °F 56.4 °F 29.86 in WSW 3 mph 4 mph 63% 0.00 in 932 W/m2
13:40 69.8 °F 57.1 °F 29.86 in WSW 3 mph 3 mph 64% 0.00 in 378 W/m2
13:45 69.4 °F 56.3 °F 29.86 in NW 3 mph 3 mph 63% 0.00 in 336 W/m2
13:50 69 °F 55.4 °F 29.86 in WSW 3 mph 3 mph 62% 0.00 in 292 W/m2
13:55 69.2 °F 56.5 °F 29.86 in South 3 mph 3 mph 64% 0.00 in 267 W/m2
14:00 68.6 °F 55.5 °F 29.86 in WSW 3 mph 3 mph 63% 0.00 in 149 W/m2
14:05 68.1 °F 55 °F 29.86 in NW 3 mph 3 mph 63% 0.00 in 176 W/m2
14:10 67.9 °F 55.3 °F 29.86 in West 2 mph 2 mph 64% 0.00 in 269 W/m2
14:15 68.6 °F 55.9 °F 29.86 in WSW 2 mph 2 mph 64% 0.00 in 378 W/m2
14:20 69.1 °F 55.5 °F 29.86 in NW 2 mph 2 mph 62% 0.00 in 267 W/m2
14:25 68.9 °F 55.3 °F 29.86 in West 3 mph 4 mph 62% 0.00 in 255 W/m2
14:30 69.1 °F 55.5 °F 29.86 in NW 3 mph 4 mph 62% 0.00 in 403 W/m2
14:35 69.8 °F 56.2 °F 29.86 in WNW 2 mph 5 mph 62% 0.00 in 329 W/m2
14:40 69.7 °F 55.6 °F 29.86 in WNW 3 mph 3 mph 61% 0.00 in 341 W/m2
14:45 69.5 °F 55.9 °F 29.86 in NW 3 mph 5 mph 62% 0.00 in 364 W/m2
14:50 69.6 °F 56 °F 29.86 in West 3 mph 4 mph 62% 0.00 in 768 W/m2
14:55 70.1 °F 56.5 °F 29.86 in East 3 mph 4 mph 62% 0.00 in 722 W/m2
15:00 70.2 °F 56.1 °F 29.86 in NW 3 mph 4 mph 61% 0.00 in 714 W/m2
15:05 70.2 °F 56.1 °F 29.86 in NNW 3 mph 4 mph 61% 0.00 in 721 W/m2
15:10 70.1 °F 56 °F 29.86 in West 3 mph 3 mph 61% 0.00 in 875 W/m2
15:15 70.8 °F 57.1 °F 29.85 in SE 2 mph 3 mph 62% 0.00 in 554 W/m2
15:20 71 °F 56.9 °F 29.85 in NW 1 mph 1 mph 61% 0.00 in 322 W/m2
15:25 70.8 °F 56.2 °F 29.85 in SW 2 mph 5 mph 60% 0.00 in 891 W/m2
15:30 71.1 °F 57.4 °F 29.85 in West 3 mph 3 mph 62% 0.00 in 780 W/m2
15:35 71.4 °F 57.2 °F 29.85 in West 2 mph 3 mph 61% 0.00 in 756 W/m2
15:40 71.6 °F 57.4 °F 29.85 in SW 2 mph 3 mph 61% 0.00 in 698 W/m2
15:45 71 °F 56.9 °F 29.85 in South 3 mph 3 mph 61% 0.00 in 540 W/m2
15:50 71 °F 56.4 °F 29.84 in South 3 mph 3 mph 60% 0.00 in 765 W/m2
15:55 71.4 °F 56.3 °F 29.84 in East 2 mph 3 mph 59% 0.00 in 455 W/m2
16:00 71.5 °F 56.4 °F 29.84 in WNW 3 mph 3 mph 59% 0.00 in 654 W/m2
16:05 71.7 °F 56.6 °F 29.84 in SSW 3 mph 4 mph 59% 0.00 in 635 W/m2
16:10 71.9 °F 57.3 °F 29.84 in West 2 mph 2 mph 60% 0.00 in 626 W/m2
16:15 71.9 °F 57.3 °F 29.84 in SW 3 mph 3 mph 60% 0.00 in 610 W/m2
16:20 72 °F 56.9 °F 29.84 in SW 3 mph 4 mph 59% 0.00 in 204 W/m2
16:25 71.9 °F 56.8 °F 29.84 in WSW 3 mph 4 mph 59% 0.00 in 253 W/m2
16:30 71.8 °F 57.2 °F 29.84 in SW 2 mph 4 mph 60% 0.00 in 246 W/m2
16:35 71.4 °F 56.3 °F 29.84 in West 3 mph 4 mph 59% 0.00 in 605 W/m2
16:40 71.4 °F 56.8 °F 29.84 in SSW 3 mph 3 mph 60% 0.00 in 547 W/m2
16:45 71.1 °F 57 °F 29.84 in South 2 mph 3 mph 61% 0.00 in 186 W/m2
16:50 70.7 °F 57.9 °F 29.84 in WSW 2 mph 2 mph 64% 0.00 in 610 W/m2
16:55 71.2 °F 57.1 °F 29.84 in West 3 mph 3 mph 61% 0.00 in 531 W/m2
17:00 71.3 °F 57.6 °F 29.84 in South 3 mph 3 mph 62% 0.00 in 490 W/m2
17:05 70.8 °F 57.1 °F 29.84 in WSW 2 mph 3 mph 62% 0.00 in 483 W/m2
17:10 70.5 °F 56.9 °F 29.84 in SSW 2 mph 2 mph 62% 0.00 in 469 W/m2
17:15 70.4 °F 57.2 °F 29.84 in South 2 mph 2 mph 63% 0.00 in 476 W/m2
17:20 70.7 °F 57.5 °F 29.84 in WSW 2 mph 2 mph 63% 0.00 in 464 W/m2
17:25 70.8 °F 57.6 °F 29.84 in South 2 mph 2 mph 63% 0.00 in 443 W/m2
17:30 70.8 °F 58 °F 29.84 in SSW 2 mph 2 mph 64% 0.00 in 431 W/m2
17:35 70.8 °F 57.1 °F 29.84 in WSW 2 mph 2 mph 62% 0.00 in 427 W/m2
17:40 70.7 °F 57 °F 29.84 in WSW 2 mph 2 mph 62% 0.00 in 396 W/m2
17:45 70.7 °F 57.9 °F 29.84 in SW 2 mph 3 mph 64% 0.00 in 360 W/m2
17:50 70.7 °F 57 °F 29.84 in SSW 2 mph 2 mph 62% 0.00 in 345 W/m2
17:55 70.6 °F 56.9 °F 29.84 in WSW 1 mph 2 mph 62% 0.00 in 297 W/m2
18:00 70.6 °F 57.4 °F 29.84 in SW 1 mph 1 mph 63% 0.00 in 318 W/m2
18:05 70.6 °F 57.4 °F 29.84 in East 1 mph 1 mph 63% 0.00 in 230 W/m2
18:10 70.6 °F 56.9 °F 29.83 in WSW 1 mph 1 mph 62% 0.00 in 188 W/m2
18:15 70.6 °F 56.5 °F 29.83 in West 1 mph 3 mph 61% 0.00 in 206 W/m2
18:20 70.7 °F 56.6 °F 29.84 in West 2 mph 2 mph 61% 0.00 in 185 W/m2
18:25 70.7 °F 56.6 °F 29.84 in East 2 mph 2 mph 61% 0.00 in 84 W/m2
18:30 70.8 °F 56.7 °F 29.84 in WSW 1 mph 2 mph 61% 0.00 in 53 W/m2
18:35 70.8 °F 57.1 °F 29.84 in NNW 1 mph 4 mph 62% 0.00 in 47 W/m2
18:40 70.8 °F 56.7 °F 29.84 in NW 1 mph 2 mph 61% 0.00 in 44 W/m2
18:45 70.9 °F 56.8 °F 29.84 in West 2 mph 2 mph 61% 0.00 in 44 W/m2
18:50 71 °F 57.3 °F 29.84 in SW 1 mph 1 mph 62% 0.00 in 46 W/m2
18:55 70.9 °F 56.3 °F 29.84 in SW 1 mph 1 mph 60% 0.00 in 44 W/m2
19:00 70.9 °F 56.8 °F 29.84 in NNW 1 mph 1 mph 61% 0.00 in 39 W/m2
19:05 70.8 °F 56.7 °F 29.84 in ESE 1 mph 1 mph 61% 0.00 in 35 W/m2
19:10 70.8 °F 56.7 °F 29.84 in West 1 mph 1 mph 61% 0.00 in 33 W/m2
19:15 70.8 °F 57.1 °F 29.84 in SE 1 mph 1 mph 62% 0.00 in 32 W/m2
19:20 70.7 °F 57.5 °F 29.84 in Calm     63% 0.00 in 28 W/m2
19:25 70.6 °F 56.9 °F 29.84 in Calm     62% 0.00 in 28 W/m2
19:30 70.5 °F 56.4 °F 29.83 in Calm     61% 0.00 in 25 W/m2
19:35 70.3 °F 56.7 °F 29.83 in Calm   1 mph 62% 0.00 in 25 W/m2
19:40 70.1 °F 56.9 °F 29.83 in SSW 1 mph 1 mph 63% 0.00 in 19 W/m2
19:45 70.1 °F 57.8 °F 29.83 in SW 1 mph 1 mph 65% 0.00 in 14 W/m2
19:50 70.1 °F 58.2 °F 29.83 in WSW 1 mph 1 mph 66% 0.00 in 11 W/m2
19:55 70.1 °F 58.6 °F 29.83 in Calm   2 mph 67% 0.00 in 7 W/m2
20:00 70 °F 58.5 °F 29.83 in Calm   1 mph 67% 0.00 in 7 W/m2
20:05 70 °F 59.4 °F 29.84 in Calm   1 mph 69% 0.00 in 0 W/m2
20:10 69.9 °F 58.4 °F 29.84 in Calm   1 mph 67% 0.00 in 0 W/m2
20:15 69.9 °F 59.3 °F 29.84 in Calm   1 mph 69% 0.00 in 0 W/m2
20:20 69.9 °F 58.9 °F 29.84 in Calm   1 mph 68% 0.00 in 0 W/m2
20:25 69.8 °F 59.6 °F 29.84 in Calm   1 mph 70% 0.00 in 0 W/m2
20:30 69.7 °F 59.5 °F 29.84 in Calm     70% 0.00 in 0 W/m2
20:35 69.6 °F 58.6 °F 29.84 in Calm     68% 0.00 in 0 W/m2
20:40 69.6 °F 59.4 °F 29.84 in Calm     70% 0.00 in 0 W/m2
20:45 69.5 °F 58.9 °F 29.84 in Calm     69% 0.00 in 0 W/m2
20:50 69.4 °F 58.8 °F 29.84 in Calm     69% 0.00 in 0 W/m2
20:55 69.3 °F 58.3 °F 29.84 in Calm     68% 0.00 in 0 W/m2
21:00 69.1 °F 58.1 °F 29.84 in Calm   1 mph 68% 0.00 in 0 W/m2
21:05 69 °F 58 °F 29.84 in Calm   2 mph 68% 0.00 in 0 W/m2
21:10 68.8 °F 57.8 °F 29.84 in WNW 1 mph 1 mph 68% 0.00 in 0 W/m2
21:15 68.7 °F 57.7 °F 29.84 in North 1 mph 1 mph 68% 0.00 in 0 W/m2
Sand Point, Michigan, USA
Compliments of Weather Underground - 2 mb